Bishop, CA

9:01 PM PST on February 22, 2017 (GMT -0800)
Bishop

Weather History for KBIH - December, 2011

Change the Weather History Date:

Saturday, December 31, 2011

  Actual Average Record
Temperature  
Mean Temperature 39 °F 37 °F  
Max Temperature 60 °F 53 °F 68 °F (1998)
Min Temperature 17 °F 22 °F 5 °F (1990)
Degree Days  
Heating Degree Days 26 28  
Month to date heating degree days 882 849  
Since 1 July heating degree days 1837 1747  
Cooling Degree Days 0 0  
Month to date cooling degree days 0 0  
Year to date cooling degree days 929 1104  
Moisture  
Dew Point -2 °F    
Average Humidity 25    
Maximum Humidity 43    
Minimum Humidity 7    
Precipitation  
Precipitation 0.00 in 0.04 in 1.34 in (2004)
Month to date precipitation T 0.80  
Year to date precipitation 3.19 5.17  
Snow  
Snow 0.00 in 0.10 in 1.50 in (1973)
Month to date snowfall 0.0 1.2  
Since 1 July snowfall 0.0 1.5  
Snow Depth 0.00 in    
Sea Level Pressure  
Sea Level Pressure 30.21 in    
Wind  
Wind Speed 5 mph (NNW)    
Max Wind Speed 12 mph    
Max Gust Speed 23 mph    
Visibility 10 miles    
Events      
T = Trace of Precipitation, MM = Missing Value Source: NWS Daily Summary

Daily Weather History Graph

Daily Weather History Graph

Search for Another Location

Airport or City:

Trip Planner

Search our weather history database for the weather conditions in past years. The results will help you decide how hot, cold, wet, or windy it might be!

Date:

Astronomy

Dec. 31, 2011 Rise Set
Actual Time 7:07 AM PST 4:45 PM PST
Civil Twilight 6:38 AM PST 5:14 PM PST
Nautical Twilight 6:05 AM PST 5:47 PM PST
Astronomical Twilight 5:34 AM PST 6:18 PM PST
Moon 11:04 AM PST (12/31) No Moon Set
Length of Visible Light 10h 36m
Length of Day
9h 37m
Waxing Crescent, 46% of the Moon is Illuminated
Dec 31
Waxing Crescent
Dec 31
First Quarter
Jan 8
Full
Jan 16
Last Quarter
Jan 22
New

Hourly Weather History & Observations

Time (PST) Temp. Windchill Dew Point Humidity Pressure Visibility Wind Dir Wind Speed Gust Speed Precip Events Conditions
12:56 AM 30.0 °F - -0.9 °F 27% 30.11 in 10.0 mi Calm Calm - N/A   Clear
1:56 AM 24.1 °F 17.0 °F -0.0 °F 35% 30.11 in 10.0 mi North 5.8 mph - N/A   Clear
2:56 AM 23.0 °F 17.0 °F 1.0 °F 39% 30.12 in 10.0 mi North 4.6 mph - N/A   Clear
3:56 AM 19.9 °F 9.3 °F -0.9 °F 40% 30.15 in 10.0 mi WNW 9.2 mph - N/A   Clear
4:56 AM 21.0 °F 11.4 °F -2.9 °F 35% 30.16 in 10.0 mi North 8.1 mph - N/A   Clear
5:56 AM 19.0 °F 13.9 °F -5.1 °F 34% 30.19 in 10.0 mi North 3.5 mph - N/A   Clear
6:56 AM 17.1 °F 6.6 °F -2.9 °F 41% 30.21 in 10.0 mi NNW 8.1 mph - N/A   Clear
7:56 AM 24.1 °F 19.7 °F -0.9 °F 34% 30.23 in 10.0 mi NNW 3.5 mph - N/A   Clear
8:56 AM 39.9 °F 37.8 °F -4.0 °F 16% 30.22 in 10.0 mi NNW 3.5 mph - N/A   Clear
9:56 AM 50.0 °F - -4.0 °F 11% 30.22 in 10.0 mi NNW 4.6 mph - N/A   Clear
10:56 AM 55.9 °F - -4.0 °F 9% 30.18 in 10.0 mi Calm Calm - N/A   Clear
11:56 AM 59.0 °F - -6.0 °F 7% 30.14 in 10.0 mi Calm Calm - N/A   Clear
12:56 PM 57.0 °F - -0.0 °F 10% 30.13 in 10.0 mi SSE 9.2 mph - N/A   Clear
1:56 PM 55.0 °F - -2.9 °F 9% 30.16 in 10.0 mi SSE 9.2 mph - N/A   Clear
2:56 PM 55.9 °F - -4.0 °F 9% 30.17 in 10.0 mi SE 4.6 mph - N/A   Clear
3:56 PM 57.0 °F - -0.9 °F 9% 30.19 in 10.0 mi Calm Calm - N/A   Clear
4:56 PM 52.0 °F - -2.0 °F 11% 30.21 in 10.0 mi Calm Calm - N/A   Clear
5:56 PM 35.1 °F 31.0 °F -2.0 °F 21% 30.28 in 10.0 mi NW 4.6 mph - N/A   Clear
6:56 PM 32.0 °F 27.5 °F -2.0 °F 23% 30.31 in 10.0 mi NNW 4.6 mph - N/A   Clear
7:56 PM 28.9 °F 22.8 °F -2.0 °F 26% 30.34 in 10.0 mi NW 5.8 mph - N/A   Clear
8:56 PM 32.0 °F 28.7 °F -2.9 °F 22% 30.30 in 10.0 mi WNW 3.5 mph - N/A   Clear
9:56 PM 26.1 °F 18.4 °F -2.0 °F 30% 30.32 in 10.0 mi NNW 6.9 mph - N/A   Clear
10:56 PM 21.9 °F 14.5 °F -0.0 °F 38% 30.34 in 10.0 mi NNW 5.8 mph - N/A   Clear
11:56 PM 23.0 °F 17.0 °F -0.0 °F 37% 30.32 in 10.0 mi North 4.6 mph - N/A   Clear